TAX09JF LGSM-LGSK

Flight info

Callsign TAX09JF
Flight time 0h 40m
Altitude 14000
Route ORMOS H59 PIPEN/N0421F240 G18 LUPIS DCT KOROS W58 SKP
Aircraft A320/M-SDE3FGHIRWY/LB1

Departure

Time 2026-05-01 11:05
Airport Samos Airport (LGSM)

Arrival

Time 2026-05-01 11:45
Airport Skiathos Island National Airport (LGSK)
Time Latitude Longitude Altitude Speed Heading
2026-05-01 10:49 37.69071 26.91184 20 ft 0 kts 326°
2026-05-01 11:00 37.69070 26.91176 22 ft 3 kts 265°
2026-05-01 11:00 37.69046 26.91133 20 ft 0 kts 238°
2026-05-01 11:01 37.69028 26.91124 20 ft 11 kts 184°
2026-05-01 11:01 37.69006 26.91275 20 ft 26 kts 94°
2026-05-01 11:01 37.68998 26.91464 20 ft 22 kts 79°
2026-05-01 11:02 37.68983 26.91594 19 ft 12 kts 99°
2026-05-01 11:02 37.68971 26.91700 19 ft 12 kts 96°
2026-05-01 11:02 37.68965 26.91838 18 ft 23 kts 92°
2026-05-01 11:02 37.68945 26.92007 20 ft 11 kts 151°
2026-05-01 11:03 37.68886 26.92016 18 ft 16 kts 164°
2026-05-01 11:03 37.68852 26.92197 18 ft 30 kts 94°
2026-05-01 11:03 37.68823 26.92405 17 ft 12 kts 86°
2026-05-01 11:03 37.68842 26.92393 18 ft 6 kts 279°
2026-05-01 11:04 37.68842 26.92387 18 ft 0 kts 274°
2026-05-01 11:04 37.68848 26.92295 17 ft 43 kts 275°
2026-05-01 11:04 37.68893 26.91598 22 ft 111 kts 274°
2026-05-01 11:04 37.68979 26.90415 125 ft 150 kts 282°
2026-05-01 11:05 37.69075 26.89141 856 ft 142 kts 283°
2026-05-01 11:05 37.69287 26.87958 1434 ft 146 kts 298°
2026-05-01 11:05 37.69806 26.86710 1943 ft 170 kts 303°
2026-05-01 11:05 37.70417 26.85358 2677 ft 187 kts 305°
2026-05-01 11:06 37.71135 26.83868 3380 ft 210 kts 307°
2026-05-01 11:06 37.71992 26.82257 3817 ft 232 kts 308°
2026-05-01 11:06 37.72945 26.80502 4355 ft 249 kts 307°
2026-05-01 11:07 37.74905 26.76766 6175 ft 258 kts 303°
2026-05-01 11:07 37.75886 26.74848 7114 ft 261 kts 302°
2026-05-01 11:07 37.76869 26.72903 8038 ft 263 kts 301°
2026-05-01 11:07 37.77533 26.71578 8671 ft 265 kts 301°
2026-05-01 11:08 37.78520 26.69604 9627 ft 267 kts 301°
2026-05-01 11:08 37.79518 26.67607 10379 ft 276 kts 300°
2026-05-01 11:08 37.81730 26.63133 10894 ft 322 kts 300°
2026-05-01 11:09 37.82939 26.60691 11481 ft 331 kts 300°
2026-05-01 11:09 37.84169 26.58212 12229 ft 335 kts 300°
2026-05-01 11:09 37.85404 26.55701 13019 ft 337 kts 299°
2026-05-01 11:10 37.87849 26.50571 14456 ft 343 kts 298°
2026-05-01 11:10 37.89072 26.47965 15130 ft 346 kts 298°
2026-05-01 11:10 37.90306 26.45333 15796 ft 349 kts 297°
2026-05-01 11:10 37.91551 26.42683 16455 ft 352 kts 297°
2026-05-01 11:11 37.92682 26.40279 17037 ft 354 kts 297°
2026-05-01 11:11 37.93952 26.37585 17702 ft 357 kts 297°
2026-05-01 11:11 37.95230 26.34874 18357 ft 360 kts 297°
2026-05-01 11:11 37.96518 26.32140 18919 ft 363 kts 297°
2026-05-01 11:12 37.97830 26.29353 19532 ft 365 kts 297°
2026-05-01 11:12 37.99187 26.26469 20136 ft 367 kts 297°
2026-05-01 11:12 38.00497 26.23687 20730 ft 369 kts 297°
2026-05-01 11:12 38.01815 26.20887 21309 ft 370 kts 297°
2026-05-01 11:13 38.03138 26.18072 21862 ft 372 kts 297°
2026-05-01 11:13 38.04464 26.15248 22399 ft 374 kts 297°
2026-05-01 11:13 38.05877 26.12458 22915 ft 379 kts 303°
2026-05-01 11:13 38.07671 26.09964 23413 ft 387 kts 312°
2026-05-01 11:14 38.09712 26.07706 23864 ft 390 kts 313°
2026-05-01 11:14 38.11767 26.05449 24075 ft 390 kts 313°
2026-05-01 11:14 38.13842 26.03163 24101 ft 399 kts 313°
2026-05-01 11:14 38.15945 26.00836 24104 ft 403 kts 313°
2026-05-01 11:15 38.18060 25.98490 24106 ft 404 kts 313°
2026-05-01 11:15 38.20177 25.96139 24104 ft 404 kts 313°
2026-05-01 11:15 38.22291 25.93790 24113 ft 403 kts 313°
2026-05-01 11:15 38.24400 25.91443 24102 ft 403 kts 313°
2026-05-01 11:16 38.26533 25.89132 24105 ft 404 kts 315°
2026-05-01 11:16 38.28740 25.86905 24103 ft 405 kts 316°
2026-05-01 11:16 38.30993 25.84741 24110 ft 406 kts 317°
2026-05-01 11:16 38.33266 25.82602 24104 ft 406 kts 317°
2026-05-01 11:17 38.35539 25.80467 24108 ft 406 kts 317°
2026-05-01 11:17 38.37799 25.78319 24100 ft 405 kts 317°
2026-05-01 11:17 38.40045 25.76150 24140 ft 405 kts 316°
2026-05-01 11:17 38.42281 25.73964 24133 ft 405 kts 316°
2026-05-01 11:18 38.44503 25.71758 24122 ft 403 kts 314°
2026-05-01 11:18 38.46540 25.69338 24120 ft 400 kts 310°
2026-05-01 11:18 38.48551 25.66888 24115 ft 400 kts 310°
2026-05-01 11:18 38.50565 25.64442 24111 ft 400 kts 311°
2026-05-01 11:19 38.52583 25.62000 24130 ft 400 kts 311°
2026-05-01 11:19 38.54601 25.59561 24127 ft 399 kts 311°
2026-05-01 11:19 38.56614 25.57123 24124 ft 399 kts 310°
2026-05-01 11:19 38.58628 25.54677 24121 ft 399 kts 310°
2026-05-01 11:20 38.60636 25.52234 24118 ft 399 kts 310°
2026-05-01 11:20 38.62644 25.49790 24123 ft 398 kts 310°
2026-05-01 11:20 38.64649 25.47345 24123 ft 398 kts 310°
2026-05-01 11:20 38.66651 25.44901 24121 ft 398 kts 310°
2026-05-01 11:21 38.68654 25.42456 24117 ft 398 kts 310°
2026-05-01 11:21 38.70657 25.40009 24145 ft 398 kts 310°
2026-05-01 11:21 38.72659 25.37562 24145 ft 398 kts 310°
2026-05-01 11:21 38.74664 25.35109 24139 ft 398 kts 310°
2026-05-01 11:22 38.76668 25.32657 24140 ft 398 kts 310°
2026-05-01 11:22 38.78670 25.30204 24139 ft 398 kts 310°
2026-05-01 11:22 38.80672 25.27749 24139 ft 398 kts 310°
2026-05-01 11:22 38.82673 25.25293 24146 ft 398 kts 310°
2026-05-01 11:23 38.84674 25.22834 24145 ft 398 kts 310°
2026-05-01 11:23 38.86673 25.20376 24150 ft 398 kts 310°
2026-05-01 11:23 38.88672 25.17915 24149 ft 398 kts 310°
2026-05-01 11:23 38.90666 25.15454 24149 ft 398 kts 310°
2026-05-01 11:24 38.92665 25.12988 24157 ft 398 kts 310°
2026-05-01 11:24 38.94663 25.10524 24157 ft 398 kts 310°
2026-05-01 11:24 38.98662 25.05595 24187 ft 398 kts 310°
2026-05-01 11:25 39.00661 25.03126 24184 ft 399 kts 310°
2026-05-01 11:25 39.04658 24.98175 24195 ft 399 kts 310°
2026-05-01 11:25 39.06633 24.95674 24187 ft 397 kts 307°
2026-05-01 11:26 39.08295 24.92883 24181 ft 391 kts 298°
2026-05-01 11:26 39.10285 24.86495 24171 ft 384 kts 279°
2026-05-01 11:26 39.10626 24.83094 24099 ft 384 kts 275°
2026-05-01 11:27 39.10877 24.79673 23859 ft 383 kts 274°
2026-05-01 11:27 39.11086 24.76263 23605 ft 382 kts 273°
2026-05-01 11:27 39.11260 24.72849 23319 ft 381 kts 273°
2026-05-01 11:27 39.11440 24.69474 22667 ft 376 kts 274°
2026-05-01 11:28 39.11642 24.66139 22001 ft 371 kts 274°
2026-05-01 11:28 39.11855 24.62846 21380 ft 367 kts 274°
2026-05-01 11:28 39.12073 24.59581 20766 ft 364 kts 274°
2026-05-01 11:29 39.12507 24.53141 19615 ft 358 kts 274°
2026-05-01 11:29 39.12716 24.49956 19073 ft 356 kts 274°
2026-05-01 11:29 39.13119 24.43642 17997 ft 351 kts 274°
2026-05-01 11:30 39.13315 24.40532 17504 ft 346 kts 274°
2026-05-01 11:30 39.13508 24.37462 17001 ft 342 kts 274°
2026-05-01 11:30 39.13700 24.34432 16535 ft 338 kts 274°
2026-05-01 11:30 39.13890 24.31427 16055 ft 336 kts 274°
2026-05-01 11:31 39.14077 24.28433 15555 ft 334 kts 274°
2026-05-01 11:31 39.14263 24.25460 15074 ft 332 kts 274°
2026-05-01 11:31 39.14448 24.22499 14560 ft 331 kts 275°
2026-05-01 11:31 39.14633 24.19548 14043 ft 330 kts 275°
2026-05-01 11:32 39.14815 24.16610 13465 ft 329 kts 275°
2026-05-01 11:32 39.14995 24.13680 12918 ft 327 kts 275°
2026-05-01 11:32 39.15171 24.10769 12371 ft 325 kts 275°
2026-05-01 11:32 39.15343 24.07880 11814 ft 323 kts 275°
2026-05-01 11:33 39.15515 24.05005 11241 ft 322 kts 275°
2026-05-01 11:33 39.15685 24.02180 11050 ft 309 kts 275°
2026-05-01 11:33 39.15847 23.99475 10927 ft 296 kts 275°
2026-05-01 11:33 39.16001 23.96886 10804 ft 284 kts 275°
2026-05-01 11:34 39.16149 23.94395 10663 ft 274 kts 275°
2026-05-01 11:34 39.16294 23.91979 10479 ft 269 kts 275°
2026-05-01 11:34 39.16435 23.89600 10239 ft 269 kts 276°
2026-05-01 11:34 39.16578 23.87185 10078 ft 266 kts 276°
2026-05-01 11:35 39.16719 23.84810 9944 ft 266 kts 276°
2026-05-01 11:35 39.16860 23.82432 9807 ft 266 kts 276°
2026-05-01 11:35 39.17001 23.80030 9536 ft 271 kts 276°
2026-05-01 11:35 39.17142 23.77614 9170 ft 269 kts 277°
2026-05-01 11:36 39.17286 23.75159 8542 ft 275 kts 277°
2026-05-01 11:36 39.17426 23.72742 8112 ft 274 kts 276°
2026-05-01 11:36 39.17568 23.70251 7460 ft 273 kts 276°
2026-05-01 11:36 39.17707 23.67813 6924 ft 274 kts 278°
2026-05-01 11:37 39.17829 23.65353 6386 ft 278 kts 274°
2026-05-01 11:37 39.17452 23.62886 5821 ft 288 kts 249°
2026-05-01 11:37 39.16319 23.60743 5253 ft 293 kts 222°
2026-05-01 11:37 39.14631 23.59342 4856 ft 287 kts 204°
2026-05-01 11:38 39.12869 23.58211 4429 ft 285 kts 205°
2026-05-01 11:38 39.11093 23.57055 3975 ft 279 kts 205°
2026-05-01 11:38 39.09385 23.55936 3239 ft 279 kts 205°
2026-05-01 11:38 39.07659 23.54805 2617 ft 277 kts 206°
2026-05-01 11:39 39.05997 23.53716 2383 ft 258 kts 205°
2026-05-01 11:39 39.04465 23.52709 2254 ft 238 kts 205°
2026-05-01 11:39 39.03010 23.51714 2166 ft 232 kts 214°
2026-05-01 11:39 39.02077 23.50091 2130 ft 226 kts 259°
2026-05-01 11:40 39.01968 23.48799 2335 ft 214 kts 279°
2026-05-01 11:40 39.02413 23.47116 2366 ft 186 kts 313°
2026-05-01 11:40 39.03350 23.46227 2321 ft 152 kts 350°
2026-05-01 11:40 39.04312 23.46252 2214 ft 132 kts 17°
2026-05-01 11:41 39.05169 23.46545 1993 ft 125 kts 19°
2026-05-01 11:41 39.05995 23.46856 1770 ft 123 kts 18°
2026-05-01 11:41 39.06837 23.47033 1638 ft 123 kts
2026-05-01 11:41 39.07689 23.47083 1538 ft 123 kts
2026-05-01 11:42 39.08555 23.47111 1401 ft 125 kts
2026-05-01 11:42 39.09423 23.47151 1260 ft 125 kts
2026-05-01 11:42 39.10285 23.47222 1136 ft 123 kts 12°
2026-05-01 11:42 39.11121 23.47414 1000 ft 122 kts 18°
2026-05-01 11:43 39.11926 23.47708 905 ft 120 kts 20°
2026-05-01 11:43 39.12722 23.48055 819 ft 122 kts 22°
2026-05-01 11:43 39.13516 23.48418 700 ft 123 kts 21°
2026-05-01 11:44 39.15118 23.49161 354 ft 121 kts 20°
2026-05-01 11:44 39.15912 23.49520 228 ft 124 kts 20°
2026-05-01 11:44 39.16711 23.49900 104 ft 122 kts 20°
2026-05-01 11:44 39.17476 23.50253 34 ft 101 kts 18°
2026-05-01 11:45 39.17863 23.50425 41 ft 25 kts 14°
2026-05-01 11:45 39.17915 23.50356 42 ft 20 kts 255°
2026-05-01 11:45 39.17817 23.50271 42 ft 10 kts 256°
2026-05-01 11:45 39.17823 23.50211 43 ft 2 kts 284°
2026-05-01 11:46 39.17823 23.50209 43 ft 0 kts 284°